SWR2DG EPWA-LSZH

Flight info

Callsign SWR2DG
Flight time N/A
Altitude 38000
Route SOXER DCT VAMPU N869 AGALU DCT TOMTI DCT ASTEL DCT OKG DCT AMOSA N869 TEDGO/N0451F370 T724 RILAX
Aircraft A21N/M-SDE2E3FGHIRWXY/LB1

Departure

Time 2026-05-05 19:10
Airport Warsaw Chopin Airport (EPWA)

Arrival

Time N/A
Airport Zürich Airport (LSZH)
Time Latitude Longitude Altitude Speed Heading
2026-05-05 18:28 52.16956 20.97186 342 ft 0 kts 68°
2026-05-05 19:01 52.16954 20.97175 342 ft 4 kts 67°
2026-05-05 19:01 52.16943 20.97136 353 ft 4 kts 67°
2026-05-05 19:01 52.16935 20.97101 348 ft 4 kts 84°
2026-05-05 19:01 52.16935 20.97073 351 ft 4 kts 107°
2026-05-05 19:02 52.16946 20.97038 347 ft 4 kts 130°
2026-05-05 19:02 52.16965 20.97009 349 ft 4 kts 147°
2026-05-05 19:02 52.16974 20.97000 346 ft 0 kts 152°
2026-05-05 19:06 52.16939 20.97030 347 ft 11 kts 152°
2026-05-05 19:06 52.16869 20.97092 345 ft 11 kts 152°
2026-05-05 19:06 52.16799 20.97153 345 ft 11 kts 152°
2026-05-05 19:06 52.16729 20.97215 342 ft 12 kts 152°
2026-05-05 19:07 52.16658 20.97277 349 ft 12 kts 152°
2026-05-05 19:07 52.16590 20.97343 346 ft 10 kts 140°
2026-05-05 19:07 52.16555 20.97438 348 ft 10 kts 116°
2026-05-05 19:07 52.16526 20.97536 351 ft 9 kts 114°
2026-05-05 19:08 52.16496 20.97646 347 ft 13 kts 114°
2026-05-05 19:08 52.16462 20.97769 342 ft 15 kts 115°
2026-05-05 19:08 52.16377 20.97776 344 ft 13 kts 208°
2026-05-05 19:08 52.16308 20.97675 338 ft 11 kts 268°
2026-05-05 19:09 52.16321 20.97626 339 ft 9 kts 295°
2026-05-05 19:09 52.16400 20.97348 339 ft 62 kts 295°
2026-05-05 19:09 52.16691 20.96299 352 ft 142 kts 295°
2026-05-05 19:09 52.17177 20.94604 808 ft 167 kts 295°
2026-05-05 19:10 52.17690 20.92906 1664 ft 169 kts 293°
2026-05-05 19:10 52.18243 20.91058 2198 ft 191 kts 291°
2026-05-05 19:10 52.18465 20.88871 2571 ft 204 kts 261°
2026-05-05 19:10 52.18213 20.86563 3081 ft 216 kts 258°
2026-05-05 19:11 52.17998 20.84117 3793 ft 218 kts 257°
2026-05-05 19:11 52.17675 20.81697 4608 ft 220 kts 256°
2026-05-05 19:11 52.17336 20.79266 5508 ft 220 kts 255°
2026-05-05 19:11 52.16990 20.76844 6461 ft 219 kts 254°
2026-05-05 19:12 52.16638 20.74421 7377 ft 220 kts 253°
2026-05-05 19:12 52.16281 20.71987 8277 ft 221 kts 253°
2026-05-05 19:12 52.15922 20.69551 9165 ft 222 kts 253°
2026-05-05 19:12 52.15558 20.67093 9981 ft 225 kts 253°
2026-05-05 19:13 52.15187 20.64595 10736 ft 228 kts 253°
2026-05-05 19:13 52.14811 20.62066 11519 ft 230 kts 253°
2026-05-05 19:13 52.14432 20.59524 12320 ft 232 kts 253°
2026-05-05 19:13 52.14049 20.56953 13158 ft 234 kts 254°
2026-05-05 19:14 52.13664 20.54374 13943 ft 236 kts 254°
2026-05-05 19:14 52.13272 20.51761 14604 ft 240 kts 254°
2026-05-05 19:14 52.12872 20.49092 15246 ft 245 kts 255°
2026-05-05 19:14 52.12463 20.46373 15883 ft 250 kts 255°
2026-05-05 19:15 52.12051 20.43631 16511 ft 254 kts 255°
2026-05-05 19:15 52.11627 20.40815 17144 ft 259 kts 255°
2026-05-05 19:15 52.11440 20.39576 17426 ft 260 kts 255°
2026-05-05 19:15 52.11004 20.36695 18069 ft 265 kts 255°
2026-05-05 19:16 52.10560 20.33760 18642 ft 268 kts 255°
2026-05-05 19:16 52.10111 20.30799 19250 ft 271 kts 255°
2026-05-05 19:16 52.09658 20.27816 19888 ft 273 kts 255°
2026-05-05 19:16 52.09201 20.24814 20510 ft 275 kts 255°
2026-05-05 19:17 52.08739 20.21784 21115 ft 278 kts 256°
2026-05-05 19:17 52.08270 20.18716 21699 ft 281 kts 256°
2026-05-05 19:17 52.07796 20.15615 22269 ft 284 kts 256°
2026-05-05 19:17 52.07315 20.12483 22832 ft 287 kts 256°
2026-05-05 19:18 52.06828 20.09313 23380 ft 291 kts 256°
2026-05-05 19:18 52.06342 20.06153 23829 ft 294 kts 256°
2026-05-05 19:18 52.05843 20.02920 24278 ft 296 kts 256°
2026-05-05 19:18 52.05339 19.99663 24747 ft 299 kts 255°
2026-05-05 19:19 52.04932 19.97033 25110 ft 301 kts 255°
2026-05-05 19:19 52.04586 19.94835 25422 ft 302 kts 254°
2026-05-05 19:19 52.03982 19.91557 25862 ft 304 kts 251°
2026-05-05 19:19 52.03311 19.88281 26227 ft 308 kts 250°
2026-05-05 19:20 52.02597 19.84975 26619 ft 311 kts 250°
2026-05-05 19:20 52.01864 19.81652 27035 ft 313 kts 250°
2026-05-05 19:20 52.01124 19.78315 27448 ft 315 kts 250°
2026-05-05 19:20 52.00382 19.74959 27846 ft 317 kts 250°
2026-05-05 19:21 51.99636 19.71570 28235 ft 320 kts 250°
2026-05-05 19:21 51.98888 19.68156 28610 ft 322 kts 250°
2026-05-05 19:21 51.98135 19.64713 28980 ft 324 kts 250°
2026-05-05 19:21 51.97379 19.61257 29343 ft 326 kts 250°
2026-05-05 19:22 51.96616 19.57770 29690 ft 329 kts 250°
2026-05-05 19:22 51.95857 19.54306 30004 ft 331 kts 250°
2026-05-05 19:22 51.95083 19.50782 30293 ft 333 kts 250°
2026-05-05 19:22 51.94303 19.47239 30578 ft 335 kts 250°
2026-05-05 19:23 51.93517 19.43675 30861 ft 337 kts 250°
2026-05-05 19:23 51.92725 19.40089 31139 ft 338 kts 251°
2026-05-05 19:23 51.91926 19.36477 31414 ft 340 kts 251°
2026-05-05 19:23 51.91122 19.32851 31683 ft 342 kts 251°
2026-05-05 19:24 51.90316 19.29223 31945 ft 344 kts 251°
2026-05-05 19:24 51.89505 19.25575 32203 ft 345 kts 250°
2026-05-05 19:24 51.88579 19.21959 32455 ft 348 kts 245°
2026-05-05 19:24 51.87412 19.18512 32707 ft 350 kts 239°
2026-05-05 19:25 51.85997 19.15344 32925 ft 353 kts 232°
2026-05-05 19:25 51.84297 19.12452 33167 ft 357 kts 224°
2026-05-05 19:25 51.82338 19.09943 33370 ft 361 kts 217°
2026-05-05 19:25 51.80153 19.07885 33584 ft 366 kts 210°
2026-05-05 19:26 51.77846 19.06107 33800 ft 368 kts 207°
2026-05-05 19:26 51.75547 19.04296 33977 ft 368 kts 213°
2026-05-05 19:26 51.73438 19.01974 34158 ft 366 kts 223°
2026-05-05 19:26 51.71636 18.99092 34331 ft 364 kts 233°
2026-05-05 19:27 51.70236 18.95708 34487 ft 363 kts 244°
2026-05-05 19:27 51.69220 18.91965 34600 ft 366 kts 250°
2026-05-05 19:27 51.68397 18.88074 34757 ft 367 kts 253°
2026-05-05 19:27 51.67677 18.84127 34943 ft 368 kts 255°
2026-05-05 19:28 51.66992 18.80141 35119 ft 369 kts 255°
2026-05-05 19:28 51.66315 18.76151 35291 ft 370 kts 257°
2026-05-05 19:28 51.65812 18.72129 35447 ft 371 kts 260°
2026-05-05 19:28 51.65405 18.68022 35608 ft 373 kts 262°
2026-05-05 19:29 51.65048 18.63878 35812 ft 373 kts 262°
2026-05-05 19:29 51.64717 18.59742 36020 ft 373 kts 262°
2026-05-05 19:29 51.64394 18.55594 36152 ft 374 kts 262°
2026-05-05 19:29 51.64068 18.51428 36286 ft 376 kts 262°
2026-05-05 19:30 51.63735 18.47235 36430 ft 377 kts 262°
2026-05-05 19:30 51.63396 18.43039 36569 ft 378 kts 262°
2026-05-05 19:30 51.63051 18.38830 36708 ft 379 kts 262°
2026-05-05 19:30 51.62702 18.34612 36846 ft 381 kts 262°
2026-05-05 19:31 51.62349 18.30383 36986 ft 382 kts 262°
2026-05-05 19:31 51.61993 18.26144 37114 ft 383 kts 262°
2026-05-05 19:31 51.61634 18.21887 37243 ft 384 kts 262°
2026-05-05 19:31 51.61273 18.17622 37372 ft 385 kts 262°
2026-05-05 19:32 51.60910 18.13345 37513 ft 386 kts 262°
2026-05-05 19:32 51.60544 18.09058 37689 ft 386 kts 262°
2026-05-05 19:32 51.60177 18.04781 37810 ft 387 kts 261°
2026-05-05 19:32 51.59808 18.00483 37889 ft 389 kts 261°
2026-05-05 19:33 51.59434 17.96166 37993 ft 391 kts 261°
2026-05-05 19:33 51.59048 17.91820 38012 ft 394 kts 259°
2026-05-05 19:33 51.57579 17.83313 38007 ft 401 kts 251°
2026-05-05 19:34 51.55667 17.74782 38009 ft 408 kts 250°
2026-05-05 19:35 51.52992 17.63421 38010 ft 408 kts 249°
2026-05-05 19:35 51.50985 17.54902 37914 ft 408 kts 249°
2026-05-05 19:35 51.49983 17.50640 37787 ft 407 kts 249°
2026-05-05 19:36 51.48983 17.46387 37790 ft 408 kts 249°
2026-05-05 19:36 51.46979 17.37876 37790 ft 408 kts 249°
2026-05-05 19:37 51.44965 17.29364 37787 ft 408 kts 249°
2026-05-05 19:37 51.42942 17.20849 37786 ft 409 kts 249°
2026-05-05 19:38 51.40914 17.12346 37815 ft 406 kts 249°